[[{"header":{"parameterUnit":"m.s-1","parameterCategory":1,"la1":30.2991,"la2":30.254,"lo1":-89.0895,"lo2":-89.0444,"dy":0.0017,"dx":0.0017,"nx":28,"ny":28,"refTime":"2023-08-21T03:00:00:Z","depth":0,"parameterNumber":2,"parameterNumberName":"U-component_of_WINDS"},"data":[0,0,0,0,0,0,0,0,0,0,0,0,0,0,0,0,0,0,0,0,0,0,0,0,0,0,0,0,0,0,0,0,0,0,0,0,0,0,0,0,0,0,0,0,0,0,0,0,0,0,0,0,0,0,0,0,0,0,-3.8563,-3.8563,0,-3.8548,-3.8548,-3.8548,-3.8436,-3.8433,-3.8431,-3.8428,-3.8413,-3.8415,-3.8418,0,0,0,0,0,0,0,0,0,0,0,0,0,-3.8496,-3.8498,-3.8563,-3.8563,-3.8563,-3.8549,-3.8548,-3.8548,-3.8437,-3.8433,-3.843,-3.8427,-3.8413,-3.8415,-3.8418,0,0,0,0,0,0,0,0,0,0,0,0,0,-3.8508,-3.8499,-3.8564,-3.8506,-3.85,-3.8549,-3.8548,-3.8548,-3.8437,-3.8433,-3.8429,-3.8425,-3.8412,-3.8415,-3.8418,-3.8521,0,0,-3.8428,-3.843,0,0,0,0,0,0,0,0,-3.8507,-3.8511,-3.8514,-3.851,-3.8504,-3.849,-3.8519,-3.8539,-3.8438,-3.8461,-3.8428,-3.8423,-3.8442,-3.8443,-3.8449,-3.852,-3.8519,-3.8428,-3.843,-3.8432,-3.8433,0,0,0,0,0,0,0,-3.8507,-3.8511,-3.8557,-3.8515,-3.8508,-3.8481,-3.8478,-3.8522,-3.8475,-3.8459,-3.8451,-3.8451,-3.8439,-3.8446,-3.8448,-3.8519,-3.8428,-3.8431,-3.8433,-3.8434,-3.8673,-3.8677,0,0,0,0,0,0,-3.8514,-3.8511,-3.8558,-3.8557,-3.8496,-3.8485,-3.8482,-3.8499,-3.8474,-3.8467,-3.8454,-3.8445,-3.8443,-3.8444,-3.8447,-3.8564,-3.8432,-3.8435,-3.8437,-3.8669,-3.8674,-3.8679,0,0,0,0,0,0,-3.8513,-3.8519,-3.8559,-3.8532,-3.8535,-3.8491,-3.851,-3.8501,-3.8508,-3.8471,-3.8462,-3.847,-3.8439,-3.8442,-3.8503,-3.8562,-3.8436,-3.8439,-3.8664,-3.867,-3.8676,-3.88,0,0,0,0,0,0,-3.8512,-3.852,-3.8558,-3.8533,-3.8536,-3.8615,-3.8514,-3.8503,-3.8514,-3.8502,-3.8483,-3.8476,-3.8436,-3.8499,-3.8506,-3.8564,-3.8442,-3.8658,-3.8667,-3.8674,-3.8791,-3.881,-3.8827,0,0,0,0,0,-3.851,-3.8594,-3.856,-3.8567,-3.8583,-3.8619,-3.862,-3.8572,-3.8519,-3.8557,-3.8533,-3.8477,-3.8555,-3.8506,-3.8513,-3.8573,-3.8654,-3.8664,-3.8674,-3.8782,-3.8806,-3.8827,0,0,0,0,0,0,-3.8626,-3.8589,-3.8552,-3.8631,-3.8629,-3.86,-3.8646,-3.8599,-3.8612,-3.8601,-3.8541,-3.8538,-3.8608,-3.8597,-3.8543,-3.8671,-3.8595,-3.8607,-3.8675,-3.8697,-3.8715,-3.8715,-3.8444,0,0,0,0,0,-3.8661,-3.8693,-3.8659,-3.8732,-3.8732,-3.869,-3.8704,-3.8667,-3.8662,-3.8661,-3.8641,-3.864,-3.8663,-3.868,-3.87,-3.879,-3.8783,-3.8834,-3.8853,-3.8868,-3.8878,-3.8923,-3.8945,-3.8711,-3.8711,-3.8711,0,0,-3.8733,-3.8717,-3.8741,-3.8755,-3.8749,-3.8782,-3.869,-3.873,-3.8754,-3.8667,-3.8722,-3.8709,-3.8703,-3.8778,-3.881,-3.8771,-3.8942,-3.888,-3.8893,-3.8894,-3.8936,-3.8958,-3.8978,-3.8718,-3.8717,-3.8716,0,0,-3.8881,-3.8873,-3.8932,-3.8928,-3.8921,-3.8892,-3.8906,-3.8885,-3.8872,-3.8927,-3.8862,-3.8891,-3.8934,-3.8931,-3.8936,-3.9086,-3.9034,-3.9094,-3.9188,-3.9233,-3.9251,-3.9267,-3.9319,-3.9339,-3.9105,-3.9105,-3.9105,0,-3.8972,-3.902,-3.8968,-3.9012,-3.902,-3.8943,-3.9002,-3.9001,-3.9001,-3.9008,-3.8965,-3.9016,-3.9007,-3.908,-3.9117,-3.9124,-3.9138,-3.9094,-3.9253,-3.9269,-3.9283,-3.9331,-3.9351,-3.9112,-3.9111,-3.9111,-3.911,0,-3.9131,-3.9166,-3.9214,-3.9215,-3.9229,-3.9281,-3.9237,-3.9257,-3.922,-3.9196,-3.9253,-3.924,-3.9255,-3.927,-3.9235,-3.9339,-3.9314,-3.9264,-3.9185,-3.9313,-3.9357,-3.9376,-3.9123,-3.912,-3.9118,-3.9116,0,0,-3.935,-3.9323,-3.9341,-3.934,-3.9327,-3.9353,-3.9401,-3.9416,-3.9434,-3.9437,-3.9476,-3.9514,-3.9466,-3.9472,-3.9436,-3.9476,-3.9593,-3.9419,-3.9418,-3.945,-3.9706,-3.9743,-3.9765,-3.956,-3.9564,-3.9566,-3.9705,0,-3.9491,-3.9571,-3.9526,-3.9612,-3.9643,-3.9572,-3.9614,-3.9611,-3.959,-3.9614,-3.9591,-3.9619,-3.9555,-3.9557,-3.9594,-3.9571,-3.9643,-3.9561,-3.9594,-3.9596,-3.9596,-3.9788,-3.9828,-3.9959,-3.9723,-3.9726,-3.9728,0,-3.9665,-3.9675,-3.9764,-3.9745,-3.9756,-3.9795,-3.9804,-3.9828,-3.9823,-3.9806,-3.9813,-3.9767,-3.9813,-3.9738,-3.9801,-3.9746,-3.9757,-3.9749,-3.9752,-3.9752,-3.9668,-3.9791,-4.0,-4.002,-3.9755,-3.9753,-3.9751,0,-3.9813,-3.985,-3.9907,-3.9909,-3.9888,-3.9917,-3.991,-3.99,-3.9912,-3.9922,-3.9929,-3.9944,-3.9952,-3.9965,-3.9925,-3.9874,-3.9993,-3.9914,-3.9978,-3.9979,-4.0004,-4.0003,-4.0216,-4.0016,-4.0016,-4.0015,-4.0015,0,-3.9974,-4.0031,-3.9973,-4.0009,-4.0071,-4.002,-4.0082,-4.0068,-4.006,-4.0092,-4.0032,-4.0063,-4.0009,-4.0034,-4.0003,-4.0059,-4.0064,-4.005,-4.0041,-4.0054,-4.0056,-4.0059,-4.0048,-4.0021,-4.002,-4.0019,-4.0018,0,-4.0149,-4.0113,-4.0171,-4.0146,-4.0142,-4.0188,-4.0168,-4.0199,-4.0176,-4.0216,-4.0223,-4.0185,-4.0212,-4.0174,-4.0197,-4.0177,-4.0253,-4.0231,-4.0254,-4.0247,-4.0312,-4.0306,-4.0534,-4.0561,-4.0346,-4.0348,-4.0349,0,-4.0252,-4.0294,-4.0275,-4.0291,-4.0287,-4.0315,-4.0327,-4.0279,-4.0294,-4.0291,-4.0324,-4.0346,-4.036,-4.0407,-4.0382,-4.0399,-4.0376,-4.0455,-4.0378,-4.039,-4.0375,-4.0372,-4.0375,-4.047,-4.0472,-4.0474,-4.0476,0,-4.0439,-4.0419,-4.0438,-4.0452,-4.0468,-4.0476,-4.048,-4.0497,-4.0447,-4.0467,-4.0493,-4.0505,-4.0528,-4.0551,-4.0562,-4.0554,-4.0507,-4.0501,-4.0516,-4.0529,-4.054,-4.0533,-4.0295,-4.0495,-4.0493,-4.0492,-4.0491,-4.049,-4.058,-4.0614,-4.0605,-4.0628,-4.0626,-4.0632,-4.066,-4.064,-4.0661,-4.0676,-4.0647,-4.0681,-4.0675,-4.0685,-4.0684,-4.0709,-4.0675,-4.0698,-4.0703,-4.0709,-4.0718,-4.0538,-4.0712,-4.0711,-4.071,-4.071,-4.071,0,-4.0762,-4.0753,-4.0776,-4.0783,-4.0801,-4.0756,-4.0758,-4.0776,-4.0807,-4.0805,-4.0821,-4.0852,-4.0873,-4.0851,-4.0868,-4.0893,-4.0872,-4.0899,-4.0896,-4.0895,-4.0749,-4.0733,-4.0916,-4.0916,-4.0916,-4.0916,-4.0916,-4.0916,-4.0859,-4.0913,-4.0893,-4.0946,-4.0937,-4.0969,-4.0974,-4.0978,-4.0977,-4.1013,-4.1031,-4.1016,-4.1006,-4.1023,-4.1041,-4.1033,-4.1042,-4.1077,-4.1062,-4.0925,-4.0905,-4.0886,-4.087,-4.1079,-4.108,-4.1205,-4.1206,-4.1207]},{"header":{"parameterUnit":"m.s-1","parameterCategory":1,"la1":30.2991,"la2":30.254,"lo1":-89.0895,"lo2":-89.0444,"dy":0.0017,"dx":0.0017,"nx":28,"ny":28,"refTime":"2023-08-21T03:00:00:Z","depth":0,"parameterNumber":3,"parameterNumberName":"V-component_of_WINDS"},"data":[0,0,0,0,0,0,0,0,0,0,0,0,0,0,0,0,0,0,0,0,0,0,0,0,0,0,0,0,0,0,0,0,0,0,0,0,0,0,0,0,0,0,0,0,0,0,0,0,0,0,0,0,0,0,0,0,0,0,1.9298,1.9298,0,1.9312,1.9313,1.9313,1.9293,1.9293,1.9292,1.9291,1.9304,1.9305,1.9306,0,0,0,0,0,0,0,0,0,0,0,0,0,1.9253,1.9254,1.9298,1.9298,1.9298,1.9312,1.9313,1.9313,1.9293,1.9293,1.9292,1.9291,1.9304,1.9305,1.9306,0,0,0,0,0,0,0,0,0,0,0,0,0,1.927,1.9254,1.9298,1.929,1.929,1.9312,1.9313,1.9313,1.9294,1.9293,1.9292,1.9291,1.9304,1.9305,1.9307,1.9337,0,0,1.9311,1.9312,0,0,0,0,0,0,0,0,1.9269,1.9272,1.9291,1.9291,1.929,1.93,1.9301,1.9321,1.9294,1.9292,1.9291,1.929,1.9304,1.9305,1.931,1.9337,1.9338,1.9311,1.9312,1.9313,1.9313,0,0,0,0,0,0,0,1.9268,1.9271,1.9304,1.9292,1.9291,1.9286,1.9287,1.9305,1.9303,1.9292,1.9291,1.9293,1.9303,1.9309,1.931,1.9338,1.9311,1.9313,1.9314,1.9314,1.9391,1.9392,0,0,0,0,0,0,1.9268,1.927,1.9303,1.9304,1.9277,1.9288,1.9289,1.9298,1.9303,1.9303,1.9294,1.9292,1.9307,1.9309,1.9311,1.9346,1.9313,1.9314,1.9315,1.939,1.9392,1.9393,0,0,0,0,0,0,1.9267,1.9271,1.9302,1.9287,1.929,1.929,1.93,1.9299,1.9304,1.9305,1.9304,1.93,1.9306,1.9309,1.9331,1.9346,1.9315,1.9316,1.9389,1.9391,1.9392,1.9418,0,0,0,0,0,0,1.9266,1.9271,1.9282,1.9287,1.9291,1.9322,1.9301,1.93,1.9307,1.9305,1.931,1.931,1.9305,1.9329,1.9332,1.9348,1.9317,1.9387,1.939,1.9392,1.9415,1.942,1.9424,0,0,0,0,0,1.9264,1.9288,1.9283,1.9287,1.9306,1.9323,1.9326,1.9321,1.9308,1.932,1.932,1.931,1.9345,1.9331,1.9335,1.9351,1.9386,1.9389,1.9392,1.9413,1.9419,1.9424,0,0,0,0,0,0,1.9284,1.9289,1.9283,1.9309,1.9316,1.932,1.9334,1.9327,1.9337,1.9334,1.9327,1.9328,1.9352,1.9354,1.9339,1.9381,1.9363,1.9367,1.9379,1.9384,1.9388,1.9387,1.9319,0,0,0,0,0,1.9292,1.9306,1.9309,1.9332,1.9336,1.9335,1.9342,1.9338,1.9345,1.9347,1.9349,1.9356,1.9368,1.9376,1.9388,1.9416,1.9417,1.9429,1.9434,1.9437,1.944,1.9456,1.9461,1.9401,1.9401,1.9401,0,0,1.9307,1.9311,1.9321,1.9336,1.9341,1.9356,1.9337,1.9353,1.9364,1.9349,1.937,1.9373,1.9379,1.9405,1.9416,1.9407,1.9457,1.9441,1.9444,1.9444,1.9459,1.9464,1.9469,1.9403,1.9403,1.9403,0,0,1.9342,1.9347,1.9367,1.9373,1.9381,1.938,1.9385,1.9391,1.9392,1.9413,1.9403,1.9416,1.9437,1.9443,1.9448,1.9488,1.9479,1.9492,1.9514,1.9529,1.9534,1.9538,1.9552,1.9557,1.9495,1.9495,1.9495,0,1.936,1.9382,1.9378,1.9396,1.9403,1.9392,1.9412,1.9417,1.9429,1.9434,1.9424,1.9452,1.9455,1.9482,1.9492,1.9497,1.9502,1.9491,1.9534,1.9538,1.9542,1.9555,1.956,1.9497,1.9497,1.9496,1.9496,0,1.9404,1.942,1.9435,1.9447,1.9456,1.9475,1.9473,1.9483,1.9479,1.9479,1.9501,1.9506,1.9518,1.9525,1.952,1.9551,1.9545,1.9535,1.9517,1.9549,1.9561,1.9566,1.9499,1.9498,1.9498,1.9498,0,0,1.945,1.9461,1.9467,1.9473,1.9482,1.9494,1.9512,1.9525,1.9534,1.9543,1.9558,1.9577,1.9568,1.9575,1.9571,1.9584,1.9615,1.9572,1.9572,1.958,1.965,1.9657,1.9663,1.961,1.9611,1.9612,1.9649,0,1.9485,1.9518,1.9515,1.9546,1.9561,1.9551,1.9567,1.9575,1.9576,1.9589,1.959,1.9604,1.9591,1.9595,1.9608,1.9609,1.9629,1.9606,1.9623,1.9624,1.9621,1.9669,1.9677,1.9712,1.9654,1.9655,1.9655,0,1.953,1.9541,1.9574,1.9582,1.9588,1.9603,1.9615,1.9627,1.9636,1.9636,1.9644,1.9638,1.9657,1.964,1.9665,1.965,1.9657,1.9659,1.966,1.9661,1.9641,1.9671,1.9723,1.9728,1.9663,1.9662,1.9662,0,1.956,1.9584,1.9606,1.9612,1.9622,1.9632,1.9637,1.9644,1.9653,1.9664,1.9669,1.9682,1.9689,1.9699,1.9697,1.9684,1.9723,1.9705,1.9723,1.9723,1.973,1.9729,1.9784,1.9736,1.9736,1.9736,1.9736,0,1.9599,1.9619,1.962,1.9634,1.9656,1.9654,1.9676,1.9679,1.9686,1.97,1.9693,1.9707,1.9704,1.9717,1.9715,1.9737,1.974,1.974,1.9739,1.974,1.974,1.9744,1.9741,1.9738,1.9737,1.9737,1.9737,0,1.9635,1.9637,1.9661,1.9669,1.9672,1.9688,1.9695,1.9708,1.971,1.9728,1.9732,1.9734,1.9749,1.9749,1.9766,1.9765,1.9791,1.9788,1.9789,1.9788,1.9805,1.9803,1.9863,1.987,1.9819,1.9819,1.982,0,1.966,1.9675,1.9686,1.9695,1.9701,1.9716,1.9725,1.9724,1.9733,1.9745,1.9757,1.9772,1.9783,1.9809,1.9811,1.9825,1.9821,1.9841,1.9823,1.9824,1.9821,1.982,1.9821,1.9844,1.9845,1.9845,1.9846,0,1.9702,1.9703,1.9717,1.9731,1.9743,1.9754,1.9764,1.9772,1.9772,1.9783,1.9799,1.9808,1.9827,1.9842,1.9855,1.9859,1.9852,1.9852,1.9857,1.9857,1.9857,1.9857,1.9798,1.985,1.985,1.9849,1.9849,1.9849,1.9733,1.9747,1.9757,1.9773,1.9781,1.9791,1.9804,1.9808,1.9821,1.9837,1.9835,1.9853,1.9862,1.9879,1.9885,1.9899,1.9892,1.9899,1.99,1.9902,1.9904,1.9856,1.9901,1.9901,1.9901,1.9901,1.9901,0,1.9775,1.9782,1.9797,1.9812,1.9824,1.9819,1.983,1.984,1.9857,1.9866,1.9879,1.9898,1.9912,1.9917,1.9932,1.9942,1.9939,1.9946,1.9944,1.9945,1.9909,1.9904,1.9947,1.9947,1.9947,1.9947,1.9947,1.9947,1.9799,1.9821,1.9824,1.985,1.9857,1.9875,1.9882,1.9891,1.9899,1.9921,1.9934,1.9937,1.9945,1.996,1.9973,1.9974,1.9979,1.9987,1.9987,1.9953,1.9948,1.9943,1.9938,1.9988,1.9988,2.0021,2.0022,2.0022]}]]